Weather History for Flagler County, Palm Coast, FL

Change the Weather History Date:

Sunday, August 10, 2014

  Actual Average (KDAB) Record (KDAB)
Temperature  
Mean Temperature 80 °F 82 °F  
Max Temperature 89 °F 90 °F 96 °F (1984)
Min Temperature 72 °F 74 °F 67 °F (1937)
Degree Days  
Heating Degree Days 0 0  
Month to date heating degree days 0  
Since 1 June heating degree days 0  
Since 1 July heating degree days 0  
Cooling Degree Days 16 17  
Month to date cooling degree days 170  
Year to date cooling degree days 1733  
Since 1 June cooling degree days 1132  
Growing Degree Days 30 (Base 50)    
Moisture  
Dew Point 73 °F    
Average Humidity 89    
Maximum Humidity 100    
Minimum Humidity 59    
Precipitation  
Precipitation 0.05 in 0.19 in 1.89 in (1997)
Month to date precipitation 1.91  
Year to date precipitation 28.64  
Sea Level Pressure  
Sea Level Pressure 30.02 in    
Wind  
Wind Speed 2 mph (SW)    
Max Wind Speed 12 mph    
Max Gust Speed -    
Visibility 9 miles    
Events      
T = Trace of Precipitation, MM = Missing Value Source: NWS Daily Summary

Daily Weather History Graph

Daily Weather History Graph

Search for Another Location

Airport:

Trip Planner

Search our weather history database for the weather conditions in past years. The results will help you decide how hot, cold, wet, or windy it might be!

Date:

Astronomy

Aug. 10, 2014 Rise Set
Actual Time 6:50 AM EDT 8:09 PM EDT
Civil Twilight 6:24 AM EDT 8:35 PM EDT
Nautical Twilight 5:54 AM EDT 9:05 PM EDT
Astronomical Twilight 5:23 AM EDT 9:36 PM EDT
Moon 8:01 PM EDT (8/10) 6:37 AM EDT (8/10)
Length of Visible Light 14h 10m
Length of Day
13h 19m
Full, 100% of the Moon is Illuminated
Aug 10
Full
Aug 10
Full
Aug 17
Last Quarter
Aug 25
New
Sep 2
First Quarter

Hourly Weather History & Observations

Time (EDT) Temp. Heat Index Dew Point Humidity Pressure Visibility Wind Dir Wind Speed Gust Speed Precip Events Conditions
12:15 AM 72.9 °F - 71.1 °F 94% 30.05 in 10.0 mi Calm Calm - N/A   Clear
12:35 AM 72.7 °F - 71.1 °F 95% 30.05 in 10.0 mi Calm Calm - N/A   Clear
12:55 AM 72.9 °F - 71.2 °F 95% 30.04 in 10.0 mi Calm Calm - N/A   Clear
1:15 AM 73.4 °F - 71.8 °F 95% 30.05 in 10.0 mi Calm Calm - N/A   Clear
1:35 AM 73.4 °F - 71.8 °F 95% 30.04 in 10.0 mi Calm Calm - N/A   Clear
1:55 AM 73.6 °F - 71.8 °F 94% 30.04 in 10.0 mi Calm Calm - N/A   Clear
2:15 AM 73.4 °F - 71.6 °F 94% 30.03 in 10.0 mi Calm Calm - N/A   Clear
2:35 AM 73.0 °F - 71.8 °F 96% 30.03 in 10.0 mi Calm Calm - N/A   Clear
2:55 AM 73.0 °F - 71.8 °F 96% 30.02 in 10.0 mi Calm Calm - N/A   Clear
3:15 AM 73.4 °F - 71.8 °F 95% 30.02 in 10.0 mi Calm Calm - N/A   Clear
3:35 AM 73.4 °F - 72.0 °F 95% 30.01 in 10.0 mi Calm Calm - N/A   Clear
3:55 AM 73.6 °F - 72.3 °F 96% 30.01 in 10.0 mi Calm Calm - N/A   Clear
4:15 AM 73.4 °F - 72.1 °F 96% 30.01 in 10.0 mi Calm Calm - N/A   Clear
4:35 AM 73.4 °F - 72.1 °F 96% 30.01 in 10.0 mi SW 4.6 mph - N/A   Clear
4:55 AM 73.4 °F - 72.3 °F 96% 30.01 in 10.0 mi Calm Calm - N/A   Clear
5:15 AM 73.4 °F - 72.5 °F 97% 30.01 in 10.0 mi Calm Calm - N/A   Clear
6:50 AM 73.4 °F - 73.4 °F 100% 30.02 in 7.0 mi Calm Calm - N/A   Clear
7:50 AM 75.2 °F - 73.4 °F 94% 30.04 in 7.0 mi Calm Calm - N/A   Clear
8:50 AM 78.8 °F - 75.2 °F 89% 30.05 in 7.0 mi WSW 4.6 mph - N/A   Clear
9:50 AM 82.4 °F 90.9 °F 77.0 °F 84% 30.06 in 7.0 mi SW 4.6 mph - N/A   Clear
10:50 AM 86.0 °F 96.9 °F 77.0 °F 74% 30.06 in 7.0 mi SW 4.6 mph - N/A   Mostly Cloudy
11:50 AM 87.8 °F 97.6 °F 75.2 °F 66% 30.05 in 7.0 mi West 9.2 mph - N/A   Mostly Cloudy
12:50 PM 89.6 °F 98.2 °F 73.4 °F 59% 30.04 in 7.0 mi West 4.6 mph - N/A   Mostly Cloudy
2:50 PM 82.4 °F 88.2 °F 73.4 °F 74% 30.04 in 7.0 mi WSW 11.5 mph - N/A   Scattered Clouds
3:50 PM 82.4 °F 88.2 °F 73.4 °F 74% 30.03 in 7.0 mi South 8.1 mph - N/A   Scattered Clouds
4:50 PM 82.4 °F 88.2 °F 73.4 °F 74% 30.02 in 7.0 mi SSW 6.9 mph - N/A   Clear
5:50 PM 82.4 °F 89.5 °F 75.2 °F 79% 30.01 in 7.0 mi SW 6.9 mph - N/A   Clear
6:50 PM 80.6 °F 84.6 °F 71.6 °F 74% 29.99 in 7.0 mi SW 6.9 mph - N/A   Clear
7:35 PM 79.2 °F - 72.5 °F 80% 29.99 in 10.0 mi SW 4.6 mph - N/A   Clear
7:50 PM 78.6 °F - 72.5 °F 81% 29.99 in 10.0 mi SSW 5.8 mph - N/A   Clear
8:15 PM 77.5 °F - 72.9 °F 85% 29.99 in 10.0 mi SW 4.6 mph - N/A   Clear
8:35 PM 77.0 °F - 72.9 °F 87% 30.00 in 10.0 mi SSW 3.5 mph - N/A   Clear
8:55 PM 76.6 °F - 73.0 °F 89% 30.00 in 10.0 mi SW 4.6 mph - N/A   Clear
9:15 PM 76.5 °F - 72.9 °F 89% 30.00 in 10.0 mi SSW 4.6 mph - N/A   Clear
9:35 PM 76.3 °F - 72.9 °F 89% 30.01 in 10.0 mi SW 3.5 mph - N/A   Clear
9:55 PM 76.3 °F - 73.4 °F 91% 30.01 in 10.0 mi SW 3.5 mph - N/A   Clear
10:15 PM 76.1 °F - 73.6 °F 92% 30.01 in 10.0 mi SSW 3.5 mph - N/A   Clear
10:35 PM 76.1 °F - 73.6 °F 92% 30.02 in 10.0 mi Calm Calm - N/A   Clear
10:55 PM 75.7 °F - 73.8 °F 94% 30.02 in 10.0 mi SSW 3.5 mph - N/A   Clear
11:15 PM 75.7 °F - 73.9 °F 94% 30.03 in 10.0 mi SSW 3.5 mph - N/A   Clear
11:35 PM 75.4 °F - 73.8 °F 95% 30.03 in 10.0 mi SW 4.6 mph - N/A   Clear
11:55 PM 75.7 °F - 73.8 °F 94% 30.03 in 10.0 mi SW 3.5 mph - N/A   Clear